Tracking 33195 objects as of 8-Feb-2026
HD Live streaming from Space Station
objects crossing your sky now

STARLINK-35754

Track STARLINK-35754 now!
10-day predictions


NORAD ID: 67054
Int'l Code: 2025-294AA
Perigee: 450.0 km
Apogee: 452.0 km
Inclination: 43.0 °
Period: 93.5 minutes
Semi major axis: 6822 km
RCS: Unknown
Launch date: December 11, 2025
Source: United States (US)
Launch site: AIR FORCE EASTERN TEST RANGE (AFETR)
Your satellite tracking list
Your tracking list is empty




NASA's NSSDC Master Catalog

Two Line Element Set (TLE):
1 67054U 25294AA  26038.88373618  .00053840  00000-0  12845-2 0  9999
2 67054  42.9997 207.0175 0001429 279.6367  80.4328 15.40759341 10232
Source of the keplerian elements: AFSPC